Theta_e
302 304 306 307 308 308 308 308 310 313 314 316 318 319 319 321 322 322 322 322 320 320 318 318 315 310 310 306 299 298 299 296 300 298 292 291 291 291 291 291 291 291 291
300 301 303 304 305 306 307 309 309 308 309 311 313 314 315 317 320 319 319 318 317 317 313 311 310 306 304 300 297 294 294 293 291 291 288 289 289 289 289 288 290 290 289
298 298 299 299 299 300 302 304 305 306 306 305 306 308 309 309 310 313 317 315 313 314 311 308 307 302 299 293 291 290 289 290 289 288 287 287 286 287 286 287 286 287 288
296 296 296 296 296 297 298 299 300 301 301 301 301 301 302 303 304 306 307 308 307 304 302 302 300 298 296 291 288 288 288 287 287 286 285 284 285 285 283 282 282 283 285
291 291 289 289 290 292 293 294 295 296 296 296 295 297 297 297 299 299 298 299 298 297 295 295 293 291 289 289 288 286 287 286 284 283 282 282 282 282 281 283 283 283 284
286 285 285 285 286 287 288 289 291 292 293 293 293 292 292 292 292 294 294 294 293 291 290 288 288 285 287 290 291 291 289 286 285 283 282 282 283 283 283 282 281 281 279
282 282 281 281 282 283 284 286 287 288 290 290 290 290 289 289 292 293 290 288 287 287 286 286 285 285 285 285 289 289 287 290 290 287 284 284 283 284 283 282 282 281 280
280 279 279 279 279 280 281 281 283 284 286 287 287 287 287 288 291 289 287 285 285 285 285 285 285 284 285 284 284 284 284 284 284 284 284 283 284 284 284 283 282 281 280
277 277 277 277 278 278 278 279 280 281 283 283 283 284 284 284 288 287 285 283 283 283 283 283 283 283 285 285 283 282 281 282 284 285 285 285 286 285 284 281 278 277 276
275 275 276 276 277 276 277 278 279 280 281 281 281 281 281 282 285 285 283 282 281 281 281 281 282 282 283 284 281 281 279 280 281 281 281 280 281 281 281 281 280 277 276
274 274 274 274 274 275 275 276 277 278 278 278 278 278 279 279 281 283 283 280 281 281 280 279 280 282 282 282 281 279 279 280 278 277 276 277 278 278 279 279 278 276 274
272 272 271 271 273 273 271 273 274 274 274 275 275 276 277 277 280 281 281 281 281 279 278 279 279 281 280 280 278 279 278 276 274 273 273 273 274 274 275 275 275 275 276
270 269 270 270 271 271 269 271 271 271 273 273 274 273 274 276 277 279 279 280 280 278 279 279 279 277 277 275 276 275 273 272 270 269 270 271 272 272 273 272 273 273 272
266 268 270 269 269 271 272 272 271 270 269 270 271 270 272 274 276 276 277 277 277 275 275 274 275 274 274 273 272 272 271 271 270 269 269 270 270 270 269 270 268 268 266
269 269 269 269 268 269 271 274 273 274 273 266 266 270 269 270 275 278 277 275 274 274 271 270 270 269 269 269 269 269 269 269 268 268 267 267 267 267 267 268 267 265 263
269 269 269 269 269 270 270 270 275 277 277 278 278 274 274 277 278 278 277 276 275 274 268 267 267 267 267 267 266 266 267 267 267 266 265 265 264 264 264 264 265 263 262
266 267 267 267 267 267 267 266 266 269 274 274 275 275 276 276 276 276 275 273 273 269 265 265 265 265 265 265 265 265 265 266 266 265 264 264 264 263 262 262 263 263 261
265 266 265 265 265 265 265 265 264 264 264 265 269 272 273 274 274 273 272 268 264 264 263 262 262 263 263 263 263 263 263 263 263 262 262 262 262 261 260 261 261 261 261
265 265 264 264 264 264 263 263 262 260 258 257 259 265 266 270 271 270 268 260 258 258 258 260 261 261 261 261 261 260 259 260 261 260 260 261 261 261 260 261 261 261 261
261 263 263 260 259 258 257 256 255 254 254 254 255 256 258 259 256 253 253 252 252 253 255 255 257 256 256 256 257 258 258 258 259 259 260 260 261 262 261 262 262 261 262
257 258 260 257 256 256 254 253 253 251 251 250 251 253 269 257 252 250 250 250 250 253 254 253 254 254 255 256 257 258 257 258 259 260 260 261 262 262 263 263 263 263 263
256 256 255 255 255 256 254 253 251 249 249 248 251 249 265 250 248 248 249 251 253 252 252 252 254 254 256 256 257 257 258 258 259 260 260 262 262 262 263 263 263 263 264
255 254 254 252 251 252 250 249 248 248 248 248 249 251 251 251 251 251 252 254 253 254 254 250 252 255 256 256 256 257 258 259 260 261 261 261 262 262 263 263 263 263 263
249 249 249 247 246 247 247 249 249 252 253 252 251 252 252 252 252 253 253 253 251 253 254 252 252 254 256 256 257 258 259 260 261 261 261 262 261 262 262 262 263 264 265
245 246 246 246 246 249 249 249 249 250 250 251 253 250 250 251 251 252 252 252 252 252 253 252 254 254 254 254 255 257 258 259 259 261 261 262 262 263 264 265 267 268 268
245 245 246 246 247 248 248 250 251 250 251 252 252 252 253 253 253 252 252 252 252 253 253 254 255 253 254 255 256 258 261 264 263 265 266 267 268 268 269 269 269 268 267
Wind_Speed
7 6 6 6 6 5 5 6 7 7 7 8 9 9 10 11 11 11 12 12 13 13 11 11 12 8 7 6 4 3 5 4 10 5 3 1 3 4 5 4 4 5 5
7 7 7 7 6 6 6 7 6 6 6 7 7 8 8 9 10 11 11 9 11 11 10 10 10 6 8 6 6 7 6 6 5 10 2 2 3 2 4 6 5 5 5
9 8 8 8 9 9 8 7 7 7 7 6 6 6 6 6 7 9 11 9 10 10 9 10 10 9 8 5 5 6 4 4 4 4 3 1 2 1 3 3 5 6 4
11 11 10 12 12 12 11 10 8 7 7 7 6 6 6 6 6 7 7 7 7 6 5 6 6 8 9 8 7 7 5 4 3 3 3 3 3 1 0 3 4 2 8
11 9 9 9 9 10 11 12 11 9 7 7 7 6 6 5 4 5 5 5 5 5 5 4 5 6 8 7 5 6 6 4 3 4 3 2 2 1 1 1 5 7 8
10 10 10 11 12 11 12 12 11 11 9 7 7 7 6 4 7 7 5 4 4 4 4 1 2 3 4 6 7 8 7 5 4 3 3 3 3 3 2 2 3 5 5
9 10 11 12 12 12 12 11 11 11 10 8 7 6 6 6 6 2 2 2 3 3 3 4 4 4 6 6 8 9 7 3 1 1 2 2 2 2 2 3 5 6 8
5 6 7 8 8 9 9 9 9 8 8 7 7 6 5 5 10 10 8 6 6 6 6 6 6 5 6 5 5 5 4 4 4 3 3 2 2 3 3 5 6 8 7
10 9 10 9 9 9 9 10 9 8 7 7 6 8 9 10 18 15 7 5 7 8 8 9 8 7 11 10 6 5 4 3 5 8 9 9 9 11 10 5 4 6 6
10 11 10 10 10 9 10 9 6 5 6 6 9 10 11 11 22 20 13 5 6 6 7 8 13 8 11 11 6 4 3 3 4 4 3 5 6 6 8 4 4 5 5
10 9 9 9 10 9 9 5 8 6 5 7 8 9 11 11 14 20 20 8 6 5 5 5 5 10 9 9 8 4 4 5 4 4 4 3 4 4 3 3 5 4 5
7 7 8 8 7 7 8 7 6 5 5 5 5 6 6 8 14 16 17 16 12 6 6 5 5 9 10 10 7 9 10 6 3 3 3 4 4 4 4 5 7 7 7
6 6 6 6 7 7 6 7 6 7 5 5 5 5 5 6 6 12 12 10 10 6 4 8 10 10 10 8 10 11 8 4 3 3 3 3 4 5 7 7 6 8 8
4 6 6 6 6 7 5 5 4 5 5 5 5 5 4 5 5 4 4 5 10 8 9 7 8 8 9 7 5 7 5 4 4 4 4 5 5 4 5 5 5 6 6
4 4 5 4 5 5 5 6 4 4 3 1 2 2 3 3 5 9 9 4 4 7 4 3 3 3 4 4 4 4 3 3 3 4 4 5 5 5 5 5 5 5 6
4 4 4 4 4 4 4 4 8 11 12 12 9 5 4 8 9 12 12 11 9 9 4 3 3 3 3 4 4 4 4 4 4 4 4 5 6 5 6 5 6 6 8
4 4 4 5 4 4 4 4 5 6 8 10 12 12 11 10 12 11 11 8 10 8 2 2 3 3 4 3 4 5 5 5 6 6 5 6 6 6 5 6 7 8 9
3 4 3 3 3 3 3 3 3 3 3 3 7 8 11 10 10 11 12 7 4 5 2 2 3 4 3 4 4 4 6 6 5 6 7 6 6 6 7 8 8 9 9
3 2 2 3 2 3 3 3 2 3 2 2 3 6 8 10 10 10 10 2 1 2 2 3 3 4 4 4 4 5 5 6 6 7 7 7 7 6 9 9 9 12 13
3 5 4 2 2 3 3 2 3 2 3 2 2 3 4 3 3 3 2 1 1 2 3 4 4 4 4 4 4 5 6 6 6 6 7 7 7 8 10 11 10 11 11
2 3 4 3 2 2 2 2 2 2 3 3 4 4 10 2 2 2 3 3 3 4 4 4 4 4 3 4 5 6 6 7 7 8 8 9 9 10 10 10 11 12 12
2 2 2 2 2 3 2 2 2 2 3 3 4 4 10 1 2 3 3 4 4 4 4 4 5 4 5 6 6 6 7 8 9 8 9 10 9 10 11 12 13 13 13
2 2 2 2 2 3 3 2 2 3 3 4 4 4 3 3 3 4 4 5 4 4 4 3 5 7 6 6 5 7 9 10 10 9 11 11 11 11 12 13 13 14 14
1 2 3 3 3 3 3 4 4 4 4 4 4 4 4 4 4 5 5 5 4 5 4 4 5 8 9 8 7 8 9 10 10 11 14 13 13 15 13 14 14 17 16
2 3 3 3 3 3 3 4 4 4 4 4 5 3 4 4 4 5 5 5 5 5 7 5 6 8 10 11 13 16 16 20 16 16 12 15 17 20 17 16 14 14 19
3 3 3 3 3 3 4 4 5 4 4 4 5 5 5 5 5 5 5 5 6 6 8 7 8 11 13 13 15 17 18 21 18 21 16 14 16 15 14 13 21 14 14
Wind_Direction
329 316 311 305 306 309 287 275 265 265 257 248 246 241 231 229 227 229 227 224 221 221 212 210 207 189 199 186 168 172 186 160 222 249 241 299 308 324 330 330 330 317 304
313 313 313 327 324 315 303 301 303 288 274 256 248 242 235 229 231 231 231 223 218 220 209 207 205 188 187 181 178 184 190 189 176 233 255 277 251 335 316 319 322 315 301
331 328 329 338 336 327 318 319 318 313 303 298 285 264 254 240 223 225 230 221 220 221 206 209 207 191 192 168 181 182 187 184 184 188 231 301 282 355 334 316 303 296 291
352 358 3 358 348 338 332 332 325 318 311 311 299 286 278 264 243 235 231 230 223 212 195 201 194 193 197 182 178 182 176 180 170 193 217 243 236 305 89 292 307 285 302
354 7 2 345 342 341 342 341 334 327 320 315 310 309 301 285 280 260 229 219 205 206 205 210 209 206 180 168 162 177 169 181 183 196 205 208 238 274 245 273 295 306 297
355 357 352 350 347 347 342 338 336 335 328 321 317 313 312 301 307 269 228 222 216 211 211 153 118 113 129 145 145 155 161 172 193 191 177 205 221 228 217 251 288 321 315
351 352 354 350 344 344 339 342 345 332 326 329 327 323 320 326 330 307 153 99 102 88 107 119 83 59 76 88 80 88 83 78 95 180 232 205 246 194 308 294 291 285 272
351 344 343 340 333 334 336 338 331 325 332 341 342 349 11 15 36 46 82 93 86 76 74 75 88 68 61 86 94 82 66 48 24 11 3 349 324 329 300 290 295 296 291
357 349 346 339 336 340 346 341 338 335 348 2 4 28 45 39 31 26 27 66 77 69 64 65 73 65 57 51 53 57 43 10 16 0 340 331 329 330 327 318 299 316 312
353 343 343 342 338 344 341 340 330 335 11 29 49 42 49 52 40 34 31 29 65 80 78 72 66 60 49 45 52 43 28 31 351 0 7 342 327 305 300 318 321 293 294
339 340 346 347 338 346 340 343 343 352 27 43 51 47 53 47 46 42 40 35 24 33 54 60 48 37 35 36 47 42 14 15 30 2 325 311 309 308 319 350 352 328 292
338 353 351 348 346 348 352 350 356 4 24 24 44 57 43 37 47 45 47 48 38 40 36 35 26 31 34 36 38 23 28 34 23 359 345 341 329 332 330 322 310 300 288
345 351 357 351 352 348 357 3 10 11 10 28 29 19 26 19 17 36 42 49 60 68 49 44 32 30 33 38 28 27 34 29 18 7 342 323 317 310 302 293 282 279 278
352 358 1 5 355 354 354 5 4 25 22 28 41 34 33 20 10 350 1 34 32 40 26 35 36 40 43 40 26 20 14 16 354 329 313 301 295 284 282 288 294 308 304
0 1 2 355 351 352 359 359 0 336 56 12 338 31 22 24 14 4 47 33 44 45 45 25 34 24 17 13 5 351 339 336 325 308 297 287 290 299 295 302 298 292 271
3 5 2 347 346 354 353 339 1 25 31 26 34 68 12 16 21 38 43 41 45 52 42 8 10 26 14 350 340 329 320 324 319 312 303 295 290 295 293 294 287 278 278
3 359 354 359 352 352 346 349 345 339 355 19 16 23 14 8 36 22 24 28 33 46 59 17 350 346 335 341 330 324 307 304 310 287 284 284 285 286 294 291 279 277 279
341 358 348 340 337 334 331 336 342 349 348 343 353 359 11 359 24 15 25 31 15 16 327 337 322 328 316 314 314 299 293 300 294 284 282 287 285 283 286 279 275 273 273
326 310 328 328 325 339 339 347 359 348 340 322 335 352 356 357 13 22 36 49 356 324 322 312 291 293 300 302 296 285 275 282 280 284 282 282 282 280 277 274 269 268 273
329 327 341 327 329 334 339 336 344 340 322 317 315 285 311 15 16 335 345 352 309 269 271 267 277 268 269 273 283 274 283 274 275 274 271 270 276 269 270 273 275 278 272
302 315 330 331 316 298 291 317 306 324 312 310 286 283 308 94 303 284 293 293 272 281 283 275 287 285 281 279 277 272 267 279 281 278 277 274 270 270 269 271 273 270 269
278 286 299 288 301 317 310 303 299 283 279 280 285 288 324 341 277 271 277 276 271 257 252 258 278 264 266 265 271 274 281 278 275 270 269 274 276 275 274 273 271 270 271
272 295 302 296 291 294 309 296 293 285 282 275 275 292 306 292 286 279 272 274 274 278 277 266 275 288 277 266 253 254 266 271 273 275 278 280 280 276 273 274 273 275 274
285 271 275 289 310 303 297 295 290 275 274 283 289 283 277 272 276 278 276 273 274 273 270 266 258 264 280 277 270 265 262 266 269 272 272 272 272 275 272 271 271 271 272
243 252 242 253 267 275 282 273 273 279 280 278 283 274 275 277 281 276 276 279 279 280 280 270 271 269 273 276 277 278 276 277 270 268 268 265 264 268 268 268 270 289 283
259 246 253 270 271 262 260 270 269 267 272 275 274 273 274 279 276 280 284 285 287 286 287 284 280 277 280 282 277 277 280 283 284 281 276 275 276 278 281 280 294 288 287